Friday Harbor, WA
on Thursday, January 17, 2013

Thursday
Previous Day Next Day
Daily Summary
 ActualAverageRecord
Temperature
Mean Temperature °F °F  
Max Temperature 44°F 44°F 57°F (2005)
Min Temperature 30°F 36°F 25°F (2012)
Degree Days
Heating Degree Days 28    
Moisture
Dew Point 33°F   
Average Humidity 91    
Maximum Humidity 100    
Minimum Humidity 71    
Precipitation
Precipitation 0.00 in in in ()
Wind
Wind Speed 1 mph   
Max Wind Speed 5 mph   
Max Gust Speed mph   
Visibility 7 miles   
Events Fog   
Averages and records for this station are not official NWS values.
Key: T is trace of precipitation, MM is missing value
Source: NWS Daily Summary
Seasonal Weather Averages
Time(PST)TemperatureDew PointHumidity Pressure Visibility Wind DirectionWind SpeedGust SpeedPrecipitationEvents Conditions
12:53 AM 33.1°F 30.0°F 89% 30.55 in 10.0 miles Calm Calm - N/A   Clear
1:53 AM 33.1°F 30.9°F 92% 30.53 in 10.0 miles Calm Calm - N/A   Clear
2:53 AM 32.0°F 30.0°F 92% 30.52 in 10.0 miles Calm Calm - N/A   Clear
3:53 AM 33.1°F 30.9°F 92% 30.51 in 10.0 miles Variable 3.5 mph - N/A   Clear
4:53 AM 32.0°F 30.0°F 92% 30.49 in 10.0 miles Calm Calm - N/A   Clear
5:53 AM 33.1°F 30.9°F 92% 30.47 in 10.0 miles Calm Calm - N/A   Clear
6:53 AM 30.0°F 28.9°F 96% 30.46 in 8.0 miles Calm Calm - N/A   Clear
7:53 AM 30.0°F 28.9°F 96% 30.46 in 5.0 miles Calm Calm - N/A   Clear
9:53 AM 37.9°F 36.0°F 93% 30.47 in 10.0 miles Calm Calm - N/A   Clear
10:53 AM 41.0°F 35.1°F 79% 30.46 in 10.0 miles North 3.5 mph - N/A   Clear
11:53 AM 42.1°F 36.0°F 79% 30.44 in 10.0 miles Calm Calm - N/A   Unknown
12:53 PM 43.0°F 35.1°F 74% 30.41 in 10.0 miles ESE 3.5 mph - N/A   Clear
1:53 PM 44.1°F 35.1°F 71% 30.38 in 10.0 miles SSE 3.5 mph - N/A   Clear
2:53 PM 41.0°F 36.0°F 82% 30.35 in 10.0 miles SSW 4.6 mph - N/A   Clear
3:53 PM 37.9°F 34.0°F 86% 30.34 in 10.0 miles Calm Calm - N/A   Clear
4:53 PM 33.1°F 30.9°F 92% 30.34 in 10.0 miles Calm Calm - N/A   Clear
5:53 PM 33.1°F 32.0°F 96% 30.34 in 10.0 miles Calm Calm - N/A   Clear
6:53 PM 30.9°F 30.0°F 96% 30.33 in 6.0 miles Calm Calm - N/A   Clear
7:53 PM 30.9°F 30.0°F 96% 30.33 in 4.0 miles Calm Calm - N/A   Partly Cloudy
8:37 PM 30.2°F 30.2°F 100% 30.32 in 4.0 miles Calm Calm - N/A   Mostly Cloudy
8:53 PM 33.1°F 30.9°F 92% 30.33 in 5.0 miles Calm Calm - N/A   Overcast
9:30 PM 33.8°F 33.8°F 100% 30.32 in 1.8 miles Calm Calm - N/A   Overcast
9:42 PM 35.6°F 35.6°F 100% 30.32 in 0.5 miles Calm Calm - N/A Fog Fog
9:53 PM 36.0°F 35.1°F 97% 30.32 in 0.2 miles Calm Calm - N/A Fog Fog
10:53 PM 35.1°F 35.1°F 100% 30.31 in 0.2 miles Calm Calm - N/A Fog Fog
11:53 PM 35.1°F 35.1°F 100% 30.31 in 0.2 miles Calm Calm - N/A Fog Fog
Moon Phase
Jan. 17 Jan. 18 Jan. 26 Feb. 03 Feb. 10
Sunrise:07:57 AM (PST) Moon Rise:10:30 AM (PST)
Sunset:04:48 PM (PST) Moon Set:No Moon Set/

Copyright © 2014 The Weather Underground, Inc.